www.pogodaiklimat.ru
ПОГОДА в Хомстеде
Время
и дата
08:56 18.01
09:56 18.01
10:56 18.01
11:56 18.01
12:56 18.01
13:56 18.01
14:56 18.01
15:56 18.01
16:56 18.01
17:56 18.01
18:56 18.01
19:56 18.01
20:56 18.01
21:56 18.01
22:56 18.01
23:56 18.01
00:56 19.01
01:56 19.01
02:56 19.01
03:56 19.01
04:56 19.01
05:56 19.01
06:56 19.01
07:56 19.01
08:56 19.01
09:56 19.01
10:56 19.01
11:56 19.01
12:56 19.01
13:56 19.01
14:56 19.01
15:56 19.01
16:56 19.01
17:56 19.01
18:08 19.01
18:20 19.01
18:56 19.01
19:56 19.01
20:56 19.01
21:56 19.01
22:56 19.01
23:56 19.01
00:56 20.01
01:56 20.01
02:56 20.01
03:41 20.01
03:51 20.01
03:56 20.01
Ветер
(напр.,м/с)
Видим. Явления Облачность Т
(С)
Тd
(С)
f
(%)
Тe
(С)
Тes
(С)
Комфортность P
(гПа)
Po
(гПа)
Тmin
(С)
Tmax
(С)
R
(мм)
R24
(мм)
S
(см)
СВ 1 16 км ясно +13.3 +12.0 92 +12 +13 1022.3 1021.7
С 2 16 км ясно +15.8 +9.5 66 +15 +17 1022.3 1021.7
С 3 16 км ясно +17.4 +8.8 57 +17 +19 1022.0 1021.3
С 2 16 км ясно +18.5 +7.9 50 +19 +25 1021.7 1021.0
С 1 16 км ясно +19.1 +5.5 41 +20 +31 1020.6 1020.0 +9.5 +19.1
СВ 1 16 км ясно +19.6 +4.5 37 +21 +31 комфорт 1020.0 1019.3
СВ 2 16 км ясно +19.1 +7.8 48 +20 +25 1019.6 1018.9
В 2 16 км ясно +18.8 +6.6 45 +19 +23 1020.0 1019.3
СВ 2 16 км ясно +18.2 +7.0 48 +18 +20 1020.3 1019.6
СВ 1 16 км ясно +16.2 +7.7 57 +16 +17 1021.0 1020.3
штиль 0 16 км ясно +13.5 +9.5 77 +13 +13 1021.7 1021.0 +13.5 +19.9
штиль 0 16 км ясно +12.4 +9.8 84 +12 +12 1022.0 1021.3
штиль 0 16 км ясно +12.5 +8.4 76 +12 +12 1022.0 1021.3
СЗ 1 16 км ясно +12.3 +8.0 75 +11 +11 1022.3 1021.7
СЗ 1 16 км ясно +12.7 +7.8 72 +11 +11 1022.3 1021.7
СЗ 1 16 км 10/10 1380 м +12.7 +8.0 73 +11 +11 1021.3 1020.6
СЗ 1 16 км ясно +12.0 +7.9 76 +10 +10 1021.7 1021.0 +11.9 +14.0
С 1 16 км 5/5 1290 м +11.8 +8.5 80 +11 +11 1021.3 1020.6
СЗ 1 16 км 10/10 1320 м +12.7 +9.9 83 +12 +12 1021.3 1020.6
С 1 16 км ясно +11.7 +9.6 87 +11 +11 1021.3 1020.6
СЗ 1 16 км 5/5 1320 м +12.1 +9.1 82 +11 +11 1021.3 1020.6
СЗ 1 16 км 8/8 1290 м +11.5 +8.4 81 +10 +10 1021.3 1020.6
СЗ 1 16 км ясно +11.4 +8.8 84 +10 +10 1021.7 1021.0 +11.2 +12.7
С 1 16 км 8/8 1290 м +12.5 +10.2 86 +12 +12 1022.3 1021.7
С 1 16 км 5/5 1350 м +15.5 +11.7 78 +15 +16 1022.7 1022.0
С 1 16 км 8/8 1200 м +18.8 +13.2 70 +20 +21 1023.0 1022.3
СВ 1 16 км 2/2 1380 м +22.0 +12.8 56 +25 +29 комфорт 1023.0 1022.3
В 2 16 км 8/8 1410 м +23.3 +12.6 51 +26 +27 жарко 1022.3 1021.7
В 2 16 км 10/10 1290 м +23.4 +13.5 54 +27 +27 душно 1021.3 1020.6 +11.2 +24.3
В 1 16 км 8/8 1500 м +23.2 +12.5 51 +26 +28 жарко 1020.3 1019.6
В 1 16 км 10/10 1080 м +22.7 +14.8 61 +26 +26 жарко 1020.0 1019.3
В 1 16 км ясно +22.7 +14.8 61 +26 +32 жарко 1020.0 1019.3
В 1 16 км 2/2 1050 м +22.4 +15.0 63 +26 +28 жарко 1020.0 1019.3
СВ 1 16 км 10/10 1650 м +20.1 +15.3 74 +23 +23 комфорт 1020.0 1019.3
В 1 16 км слабый дождь 10/10 1650 м +20.0 +16.0 78 +23 +23 комфорт 1020.3 1019.6
штиль 0 16 км 10/10 1800 м +20.0 +16.0 78 +22 +22 комфорт 1020.6 1020.0
СВ 1 16 км 10/10 1950 м +19.1 +15.7 81 +21 +21 комфорт 1020.6 1020.0 +19.1 +24.5
СВ 1 16 км 10/10 1950 м +19.0 +15.8 82 +21 +21 комфорт 1020.0
В 1 16 км 8/8 1950 м +18.7 +15.9 84 +20 +20 1019.6
В 1 16 км ясно +17.5 +15.5 88 +18 +18 1019.6
СВ 1 16 км 8/0 2250 м
[Ac]
+17.2 +15.0 87 +18 +18 1020.6 1020.0
штиль 0 16 км 8/0 2400 м
[Ac]
+17.1 +14.9 87 +17 +17 1019.6 1018.9
СЗ 1 16 км 2/0 2400 м
[Ac]
+17.1 +14.7 86 +17 +17 1019.3 1018.6 +16.8 +19.2
штиль 0 16 км 8/0 2550 м
[Ac]
+17.4 +15.4 88 +17 +17 1018.9 1018.3
В 1 8 км дымка 5/5 840 м +17.1 +15.6 91 +17 +17 1018.6 1017.9
СВ 1 6 км дымка 8/8 м +18.0 +17.0 94 +19 +19 1018.6 1017.9
СВ 1 6 км дымка 5/5 720 м +18.0 +17.0 94 +19 +19 1018.6 1017.9
В 1 6 км дымка 5/5 720 м +18.5 +17.5 94 +20 +20 1018.6 1017.9
Местоположение метеостанции Homestead Air Force Base: широта 25.4833 долгота -80.3833 высота над уровнем моря 2 м.
В архиве по умолчанию представлена погода в Хомстеде за последние 1-2 суток. Обновление информации о фактической погоде в базе происходит ежечасно! Архивные данные за месяц целиком и за предыдущие месяцы Вы можете получить, выбрав интересующий диапазон дат из раскрывающегося списка и нажав кнопку "Ввод!".
Внимание! Архив погоды МЕТАР в базе сайта по станциям, не включенным в климатический монитор, хранится не более 60 дней. Нет смысла пытаться выбрать более раннюю дату.
*Определитесь, кто Вы:
Внимание! Время в таблицах - местное (без учета летнего времени). Для получения всемирного времени необходимо вычесть поправку, которая равна -5 ч.
Смотрите также архив погоды в соседних городах и на ближайших метеорологических станциях:
Партнеры нашего сайта:      
Пояснения к столбцам:
  • Ветер - указаны скорость ветра в м/с - средняя за 10 мин, порывы в срок и между сроками (в фигурных скобках) и направление, откуда дует ветер: С - северный,
  • СВ - северо-восточный, В - восточный, ЮВ - юго-восточный, Ю - южный, ЮЗ - юго-западный, З - западный, СЗ - северо-западный.
  • Видимость - горизонтальная дальность видимости в метрах или километрах. При видимости от 1 до 10 км при отсутствии осадков обычно наблюдается дымка, при ухудшении видимости до 1 км и менее - туман. В сухую погоду видимость может ухудшаться дымом, пылью или мглою.
  • Явления - указаны атмосферные явления, наблюдавшиеся в срок или в последний час перед сроком; фигурными скобками обозначены явления, наблюдавшиеся между сроками (за 1-3 часа до срока); квадратными скобками обозначены град или гололедные отложения с указанием их диаметра в мм.
  • Облачность - указаны через наклонную черту общая и нижняя облачность в баллах и высота нижней границы облаков в метрах; квадратными скобками обозначены формы облаков: Ci - перистые, Cs - перисто-слоистые, Cc - перисто-кучевые, Ac - высококучевые, As - высокослоистые, Sc - слоисто-кучевые, Ns - слоисто-дождевые, Cu - кучевые, Cb - кучево-дождевые. Подробнее классификацию облаков см. в Атласе облаков (PDF).
  • T - Температура воздуха - температура, измеренная на высоте 2 м над землей.
  • Td - Температура точки росы - температура, при понижении до которой содержащийся в воздухе водяной пар достигнет насыщения.
  • f - Относительная влажность воздуха - влажноcть воздуха, измеренная на высоте 2 м над землей.
  • Te - Эффективная температура - температура, которую ощущает одетый по сезону человек в тени. Характеристика душности погоды. При расчете учитывается влияние влажности воздуха и скорости ветра на теплоощущения человека.
  • Tes - Эффективная температура на солнце - температура, которую ощущает человек, с поправкой на солнечный нагрев. Характеристика знойности погоды. Зависит от высоты солнца над горизонтом, облачности и скорости ветра. Ночью, в пасмурную погоду, а также при ветре 12 м/с и более поправка равна нулю.
  • P - Атмосферное давление - приведенное к уровню моря атмосферное давление.
  • Po - Атмосферное давление - измеренное на уровне метеостанции атмосферное давление.
  • Tmin - Минимальная температура - минимум температуры воздуха на высоте 2 м над землей.
  • Tmax - Максимальная температура - максимум температуры воздуха на высоте 2 м над землей.
  • R - Количество осадков - Количество выпавших осадков за период времени, мм. При наведении курсора мыши на число - период времени, за который выпало указанное количество осадков.
  • R24 - Количество осадков - Количество выпавших осадков за 24 часа, мм.
  • S - Снежный покров - Высота снежного покрова, см. При наведении курсора мыши на число - состояние снежного покрова и степень покрытия местности в баллах.